Terminal Aerodrome Forecast
Issued by NWS Sioux Falls, SD

Home | Current Version | Previous Version | Graphics & Text | Print | Product List | Glossary On
Versions: 1 2 3 4 5 6 7 8 9 10 11 12 13 14 15 16 17 18 19 20 21 22 23 24 25 26 27 28 29 30 31 32 33 34 35 36 37
000
FTUS43 KFSD 201600 AAB
TAFSUX
TAF AMD
KSUX 201631Z 2017/2112 16012G20KT P6SM SCT025
     FM201730 17013G20KT P6SM BKN025
     FM210030 15009KT P6SM SCT025
     FM210700 14006KT P6SM FEW030=

USA.gov is the U.S. government's official web portal to all federal, state and local government web resources and services.